[[{"header":{"parameterUnit":"m.s-1","parameterCategory":1,"la1":30.2991,"la2":30.254,"lo1":-89.0895,"lo2":-89.0444,"dy":0.0017,"dx":0.0017,"nx":28,"ny":28,"refTime":"2024-12-31T09:00:00:Z","depth":0,"parameterNumber":2,"parameterNumberName":"U-component_of_WINDS"},"data":[0,0,0,0,0,0,0,0,0,0,0,0,0,0,0,0,0,0,0,0,0,0,0,0,0,0,0,0,0,0,0,0,0,0,0,0,0,0,0,0,0,0,0,0,0,0,0,0,0,0,0,0,0,0,0,0,0,0,-2.9362,-2.9363,0,-2.9445,-2.9446,-2.9447,-2.9317,-2.9312,-2.9308,-2.9303,-2.9393,-2.9399,-2.9405,0,0,0,0,0,0,0,0,0,0,0,0,0,-2.9095,-2.9101,-2.9362,-2.9363,-2.9364,-2.9445,-2.9446,-2.9447,-2.9318,-2.9312,-2.9307,-2.9301,-2.939,-2.9398,-2.9406,0,0,0,0,0,0,0,0,0,0,0,0,0,-2.9198,-2.9102,-2.9362,-2.9309,-2.9305,-2.9445,-2.9446,-2.9448,-2.9319,-2.9312,-2.9305,-2.9299,-2.9388,-2.9397,-2.9407,-2.9603,0,0,-2.9437,-2.9441,0,0,0,0,0,0,0,0,-2.9192,-2.9208,-2.9316,-2.9313,-2.9309,-2.9364,-2.9384,-2.95,-2.932,-2.9314,-2.9303,-2.9296,-2.9389,-2.9398,-2.9429,-2.9608,-2.9611,-2.9438,-2.9444,-2.9448,-2.9451,0,0,0,0,0,0,0,-2.9185,-2.9204,-2.9395,-2.9318,-2.9314,-2.9282,-2.929,-2.9406,-2.9388,-2.9314,-2.9305,-2.9316,-2.9385,-2.9419,-2.943,-2.9613,-2.9438,-2.9447,-2.9453,-2.9457,-2.9957,-2.9964,0,0,0,0,0,0,-2.9184,-2.9199,-2.9393,-2.9398,-2.9233,-2.9293,-2.9301,-2.9353,-2.9387,-2.9385,-2.9322,-2.931,-2.9406,-2.9418,-2.9432,-2.9665,-2.9448,-2.9457,-2.9463,-2.995,-2.9959,-2.9967,0,0,0,0,0,0,-2.9179,-2.9203,-2.9389,-2.9296,-2.9317,-2.9305,-2.9364,-2.9358,-2.9392,-2.9392,-2.9389,-2.9359,-2.9401,-2.9418,-2.9562,-2.9666,-2.9462,-2.9471,-2.9941,-2.9952,-2.9963,-3.0132,0,0,0,0,0,0,-2.9172,-2.9202,-2.9276,-2.9298,-2.9322,-2.9517,-2.9371,-2.9365,-2.9409,-2.9394,-2.9427,-2.9426,-2.9397,-2.9548,-2.9571,-2.9676,-2.9479,-2.9932,-2.9946,-2.9959,-3.0117,-3.0147,-3.0173,0,0,0,0,0,-2.9163,-2.9321,-2.928,-2.9304,-2.9414,-2.9523,-2.9537,-2.9499,-2.9418,-2.9492,-2.9493,-2.9425,-2.965,-2.9563,-2.9589,-2.9698,-2.9925,-2.9942,-2.9958,-3.0104,-3.0141,-3.0173,0,0,0,0,0,0,-2.9313,-2.9323,-2.9278,-2.9448,-2.9485,-2.9501,-2.9594,-2.954,-2.9603,-2.9586,-2.9538,-2.9546,-2.97,-2.9713,-2.9616,-2.989,-2.9774,-2.9797,-2.9876,-2.9912,-2.9939,-2.9934,-2.9487,0,0,0,0,0,-2.9365,-2.9451,-2.9456,-2.9605,-2.9626,-2.9607,-2.9653,-2.9621,-2.9658,-2.9674,-2.9685,-2.9725,-2.9804,-2.9858,-2.9932,-3.0117,-3.0123,-3.0205,-3.0233,-3.0256,-3.0277,-3.0377,-3.0413,-3.0021,-3.0021,-3.0021,0,0,-2.9475,-2.9491,-2.9549,-2.9636,-2.9661,-2.9753,-2.9622,-2.9724,-2.9792,-2.969,-2.9826,-2.9835,-2.9876,-3.0042,-3.0115,-3.0057,-3.0386,-3.0277,-3.0296,-3.0304,-3.0397,-3.0435,-3.0468,-3.0032,-3.003,-3.0028,0,0,-2.9723,-2.9743,-2.987,-2.9897,-2.9937,-2.9923,-2.9953,-2.9977,-2.9979,-3.0114,-3.0039,-3.0119,-3.0258,-3.029,-3.0325,-3.0584,-3.0525,-3.0609,-3.0758,-3.0855,-3.0886,-3.0913,-3.1007,-3.1041,-3.0629,-3.063,-3.063,0,-2.9855,-2.9989,-2.9942,-3.005,-3.0091,-3.0,-3.0129,-3.0159,-3.0221,-3.0252,-3.0185,-3.0357,-3.0378,-3.055,-3.0613,-3.0644,-3.0678,-3.0606,-3.0885,-3.0912,-3.0937,-3.1025,-3.1061,-3.064,-3.0639,-3.0638,-3.0637,0,-3.015,-3.0244,-3.0342,-3.0403,-3.0454,-3.0572,-3.0545,-3.0602,-3.0565,-3.0558,-3.0697,-3.0719,-3.0796,-3.0834,-3.0799,-3.1001,-3.0964,-3.0893,-3.0775,-3.0985,-3.1068,-3.1101,-3.0654,-3.0651,-3.0648,-3.0645,0,0,-3.0497,-3.0529,-3.0566,-3.0592,-3.0628,-3.0701,-3.0815,-3.0888,-3.0939,-3.0984,-3.108,-3.1198,-3.1131,-3.1171,-3.1138,-3.1224,-3.1429,-3.1141,-3.1141,-3.1195,-3.1654,-3.171,-3.175,-3.1388,-3.1394,-3.1399,-3.1651,0,-3.0744,-3.0939,-3.0901,-3.1092,-3.1179,-3.1094,-3.1193,-3.1226,-3.1223,-3.1296,-3.1292,-3.1378,-3.1282,-3.1306,-3.1386,-3.1387,-3.1521,-3.1368,-3.1478,-3.1483,-3.1472,-3.1792,-3.1851,-3.2088,-3.1683,-3.1688,-3.1692,0,-3.106,-3.1116,-3.1316,-3.1338,-3.1373,-3.1462,-3.1526,-3.1597,-3.1634,-3.1625,-3.1669,-3.162,-3.1734,-3.1613,-3.177,-3.1667,-3.171,-3.1716,-3.1725,-3.1735,-3.1602,-3.1814,-3.2163,-3.2199,-3.1743,-3.1739,-3.1735,0,-3.1295,-3.142,-3.1555,-3.1581,-3.1609,-3.1674,-3.169,-3.1719,-3.1765,-3.1821,-3.1851,-3.192,-3.1959,-3.2013,-3.1985,-3.1899,-3.2147,-3.2024,-3.2145,-3.2146,-3.2203,-3.22,-3.2566,-3.2227,-3.2227,-3.2226,-3.2225,0,-3.1576,-3.1703,-3.1661,-3.1745,-3.1884,-3.1838,-3.1977,-3.1982,-3.2009,-3.2093,-3.2023,-3.2104,-3.206,-3.2137,-3.2115,-3.2249,-3.2267,-3.2264,-3.2257,-3.2272,-3.2272,-3.23,-3.2284,-3.2236,-3.2233,-3.2232,-3.223,0,-3.1863,-3.184,-3.1983,-3.1998,-3.2004,-3.2106,-3.2119,-3.2198,-3.2188,-3.2295,-3.2318,-3.2303,-3.2391,-3.2366,-3.2462,-3.2447,-3.2617,-3.2588,-3.2605,-3.2599,-3.2721,-3.271,-3.3119,-3.317,-3.2798,-3.2801,-3.2804,0,-3.2046,-3.214,-3.2165,-3.2215,-3.2235,-3.2318,-3.2364,-3.2322,-3.2374,-3.2421,-3.2495,-3.2576,-3.2638,-3.2782,-3.2781,-3.2854,-3.2827,-3.2965,-3.2838,-3.285,-3.2831,-3.2827,-3.2837,-3.2992,-3.2996,-3.2999,-3.3002,0,-3.2372,-3.2356,-3.2425,-3.2491,-3.2548,-3.2598,-3.2641,-3.2687,-3.2648,-3.2709,-3.2797,-3.2846,-3.2942,-3.3024,-3.309,-3.3106,-3.305,-3.3042,-3.3074,-3.3091,-3.3097,-3.3097,-3.2676,-3.3033,-3.303,-3.3028,-3.3026,-3.3025,-3.2613,-3.2694,-3.2723,-3.2803,-3.283,-3.2873,-3.2947,-3.2946,-3.3018,-3.3092,-3.3063,-3.3165,-3.3198,-3.328,-3.3305,-3.3384,-3.3332,-3.3378,-3.339,-3.3402,-3.3418,-3.3083,-3.3396,-3.3395,-3.3394,-3.3393,-3.3392,0,-3.2938,-3.2952,-3.3025,-3.3087,-3.315,-3.3088,-3.3133,-3.319,-3.3279,-3.3314,-3.3377,-3.3478,-3.3557,-3.3561,-3.3635,-3.3697,-3.3673,-3.3718,-3.3714,-3.3719,-3.346,-3.3426,-3.3737,-3.3737,-3.3737,-3.3737,-3.3737,-3.3737,-3.3114,-3.3247,-3.3234,-3.338,-3.3393,-3.3491,-3.3522,-3.3561,-3.3588,-3.3704,-3.3769,-3.377,-3.3793,-3.3867,-3.3937,-3.3936,-3.3967,-3.4023,-3.4013,-3.3772,-3.3738,-3.3705,-3.3672,-3.403,-3.4031,-3.4265,-3.4268,-3.4269]},{"header":{"parameterUnit":"m.s-1","parameterCategory":1,"la1":30.2991,"la2":30.254,"lo1":-89.0895,"lo2":-89.0444,"dy":0.0017,"dx":0.0017,"nx":28,"ny":28,"refTime":"2024-12-31T09:00:00:Z","depth":0,"parameterNumber":3,"parameterNumberName":"V-component_of_WINDS"},"data":[0,0,0,0,0,0,0,0,0,0,0,0,0,0,0,0,0,0,0,0,0,0,0,0,0,0,0,0,0,0,0,0,0,0,0,0,0,0,0,0,0,0,0,0,0,0,0,0,0,0,0,0,0,0,0,0,0,0,-3.3547,-3.3548,0,-3.362,-3.3621,-3.3622,-3.3586,-3.3584,-3.3582,-3.358,-3.3653,-3.3656,-3.366,0,0,0,0,0,0,0,0,0,0,0,0,0,-3.3374,-3.3377,-3.3547,-3.3548,-3.3549,-3.362,-3.3621,-3.3622,-3.3586,-3.3584,-3.3581,-3.3579,-3.3651,-3.3656,-3.366,0,0,0,0,0,0,0,0,0,0,0,0,0,-3.3448,-3.3378,-3.3547,-3.354,-3.354,-3.362,-3.3621,-3.3622,-3.3587,-3.3584,-3.3581,-3.3578,-3.365,-3.3655,-3.3661,-3.3752,0,0,-3.3678,-3.368,0,0,0,0,0,0,0,0,-3.3444,-3.3454,-3.354,-3.354,-3.354,-3.3591,-3.3586,-3.3665,-3.3587,-3.3569,-3.358,-3.3577,-3.3634,-3.3641,-3.3661,-3.3755,-3.3758,-3.3678,-3.3682,-3.3684,-3.3686,0,0,0,0,0,0,0,-3.3439,-3.3451,-3.3576,-3.3541,-3.3541,-3.3532,-3.3539,-3.3601,-3.3616,-3.357,-3.3568,-3.3577,-3.3634,-3.3655,-3.3662,-3.3759,-3.3678,-3.3683,-3.3686,-3.3689,-3.393,-3.3933,0,0,0,0,0,0,-3.3434,-3.3447,-3.3573,-3.3578,-3.3484,-3.3537,-3.3545,-3.3578,-3.3616,-3.3619,-3.3579,-3.3575,-3.3647,-3.3656,-3.3665,-3.3772,-3.3684,-3.3689,-3.3692,-3.3927,-3.393,-3.3934,0,0,0,0,0,0,-3.3431,-3.3446,-3.3571,-3.3512,-3.3527,-3.3543,-3.3579,-3.358,-3.3602,-3.3623,-3.3625,-3.3599,-3.3646,-3.3657,-3.373,-3.3774,-3.3692,-3.3697,-3.3923,-3.3928,-3.3932,-3.3989,0,0,0,0,0,0,-3.3426,-3.3445,-3.348,-3.3513,-3.353,-3.3636,-3.3582,-3.3584,-3.3612,-3.3607,-3.3641,-3.3644,-3.3644,-3.3722,-3.3736,-3.378,-3.3701,-3.3919,-3.3925,-3.3931,-3.3983,-3.3995,-3.4005,0,0,0,0,0,-3.342,-3.3493,-3.3482,-3.3498,-3.3575,-3.3639,-3.3648,-3.3647,-3.3616,-3.3651,-3.3664,-3.3643,-3.3767,-3.373,-3.3745,-3.3792,-3.3916,-3.3923,-3.393,-3.3978,-3.3993,-3.4005,0,0,0,0,0,0,-3.3465,-3.3497,-3.3486,-3.3572,-3.3603,-3.3632,-3.3677,-3.3663,-3.3703,-3.3696,-3.3692,-3.37,-3.3776,-3.3791,-3.3749,-3.3881,-3.3837,-3.3847,-3.3868,-3.3882,-3.3893,-3.3887,-3.3706,0,0,0,0,0,-3.3485,-3.3534,-3.356,-3.3634,-3.365,-3.3661,-3.3688,-3.3685,-3.3716,-3.3729,-3.3747,-3.3778,-3.3823,-3.3854,-3.3897,-3.3985,-3.3992,-3.4025,-3.4036,-3.4045,-3.4054,-3.41,-3.4115,-3.3957,-3.3957,-3.3956,0,0,-3.3526,-3.355,-3.3582,-3.3643,-3.3667,-3.3717,-3.3672,-3.3727,-3.3764,-3.3737,-3.3807,-3.3822,-3.3856,-3.3936,-3.3973,-3.3951,-3.4099,-3.4054,-3.4061,-3.4065,-3.4109,-3.4124,-3.4137,-3.3961,-3.396,-3.396,0,0,-3.3628,-3.3652,-3.3715,-3.374,-3.3776,-3.3783,-3.3798,-3.383,-3.3838,-3.3909,-3.3889,-3.3932,-3.4012,-3.4036,-3.4059,-3.4169,-3.4151,-3.4183,-3.424,-3.4286,-3.4298,-3.4309,-3.4347,-3.4361,-3.4192,-3.4192,-3.4192,0,-3.3675,-3.3751,-3.3749,-3.3806,-3.3833,-3.3811,-3.3875,-3.3898,-3.3947,-3.3965,-3.3941,-3.4039,-3.406,-3.4146,-3.4173,-3.4192,-3.4209,-3.4179,-3.4297,-3.4308,-3.4318,-3.4354,-3.4369,-3.4196,-3.4195,-3.4195,-3.4195,0,-3.3806,-3.3859,-3.3906,-3.3954,-3.3986,-3.4046,-3.4052,-3.4085,-3.4079,-3.4087,-3.4159,-3.4184,-3.4231,-3.4251,-3.4245,-3.4336,-3.4321,-3.4297,-3.4252,-3.4337,-3.4371,-3.4385,-3.4201,-3.42,-3.4199,-3.4198,0,0,-3.3938,-3.3984,-3.4001,-3.4022,-3.406,-3.4101,-3.4159,-3.4206,-3.4233,-3.4267,-3.4315,-3.4383,-3.436,-3.4386,-3.4382,-3.4423,-3.4507,-3.4393,-3.4394,-3.4412,-3.4607,-3.4624,-3.464,-3.4495,-3.4498,-3.45,-3.4603,0,-3.4042,-3.4145,-3.4145,-3.4239,-3.4288,-3.4267,-3.4318,-3.4346,-3.4356,-3.4397,-3.4407,-3.4455,-3.4422,-3.4437,-3.4476,-3.4488,-3.4545,-3.4481,-3.4539,-3.4541,-3.453,-3.4658,-3.4677,-3.4774,-3.4617,-3.4619,-3.4621,0,-3.4177,-3.4215,-3.4315,-3.4345,-3.4365,-3.4411,-3.4453,-3.4494,-3.4525,-3.4529,-3.4558,-3.4548,-3.4606,-3.456,-3.4639,-3.4595,-3.4619,-3.4628,-3.4632,-3.4637,-3.4585,-3.4665,-3.4804,-3.4818,-3.4642,-3.464,-3.4639,0,-3.4261,-3.4338,-3.4408,-3.4426,-3.4464,-3.4496,-3.4513,-3.4541,-3.4569,-3.4606,-3.4623,-3.4666,-3.469,-3.4723,-3.4724,-3.4691,-3.4804,-3.4758,-3.4808,-3.4808,-3.4832,-3.483,-3.4976,-3.4849,-3.4849,-3.4848,-3.4848,0,-3.4377,-3.4438,-3.4446,-3.4489,-3.4557,-3.4555,-3.4622,-3.4636,-3.4661,-3.4705,-3.469,-3.4731,-3.4731,-3.4773,-3.4775,-3.4839,-3.485,-3.4854,-3.4854,-3.4855,-3.4855,-3.487,-3.4863,-3.4852,-3.4851,-3.4851,-3.485,0,-3.4483,-3.4491,-3.4565,-3.4594,-3.4603,-3.4651,-3.4676,-3.4716,-3.4724,-3.4779,-3.4792,-3.4805,-3.4853,-3.4858,-3.4915,-3.4916,-3.4993,-3.4986,-3.4983,-3.4982,-3.503,-3.5025,-3.519,-3.5211,-3.5071,-3.5073,-3.5074,0,-3.4555,-3.4602,-3.4636,-3.4665,-3.4684,-3.473,-3.4759,-3.4759,-3.4789,-3.4827,-3.4862,-3.4909,-3.4947,-3.5025,-3.5038,-3.5081,-3.5074,-3.5129,-3.508,-3.508,-3.5073,-3.507,-3.5074,-3.5138,-3.5139,-3.5141,-3.5142,0,-3.4683,-3.4684,-3.4726,-3.477,-3.4804,-3.4838,-3.487,-3.4894,-3.4898,-3.4932,-3.4982,-3.5011,-3.5068,-3.5115,-3.5156,-3.5172,-3.5157,-3.5157,-3.517,-3.5172,-3.5168,-3.517,-3.5008,-3.5153,-3.5152,-3.5151,-3.515,-3.515,-3.4774,-3.4814,-3.4844,-3.4891,-3.4915,-3.4945,-3.4984,-3.4997,-3.5038,-3.5085,-3.5083,-3.5137,-3.5166,-3.522,-3.524,-3.5281,-3.5263,-3.5283,-3.5288,-3.5292,-3.5297,-3.5162,-3.5289,-3.5289,-3.5288,-3.5288,-3.5288,0,-3.49,-3.4918,-3.4961,-3.5006,-3.5043,-3.5026,-3.506,-3.5092,-3.514,-3.5169,-3.5206,-3.5262,-3.5307,-3.5324,-3.5367,-3.5397,-3.5392,-3.5409,-3.5406,-3.541,-3.5311,-3.5295,-3.5413,-3.5413,-3.5413,-3.5413,-3.5413,-3.5413,-3.4969,-3.5036,-3.5041,-3.5119,-3.5137,-3.5191,-3.5211,-3.5238,-3.5261,-3.5325,-3.5362,-3.5373,-3.5397,-3.5441,-3.5481,-3.5485,-3.5501,-3.5521,-3.5522,-3.5429,-3.5417,-3.5405,-3.5389,-3.5525,-3.5525,-3.5617,-3.5618,-3.5618]}]]